Weather Roundup
Issued by NWS Chicago, IL

Home | Current Version | Previous Version | Graphics & Text | Print | Product List | Glossary On
Versions: 1 2 3 4 5 6 7 8 9 10 11 12 13 14 15 16 17 18 19 20 21 22 23 24 25 26 27 28 29 30 31 32 33 34 35 36 37 38 39 40 41 42 43 44 45 46 47 48 49 50
000
NZUS59 KLOT 301800
HRRLOT

CHICAGO AREA WEATHER ROUNDUP
NATIONAL WEATHER SERVICE CHICAGO/ROMEOVILLE IL
100 PM CDT TUE SEP 30 2014

NOTE: "FAIR" INDICATES FEW OR NO CLOUDS BELOW 12,000 FEET WITH NO
SIGNIFICANT WEATHER AND/OR OBSTRUCTIONS TO VISIBILITY.

* THESE STATIONS ARE NOT UNDER NWS QUALITY CONTROL. THEY ALSO MAY NOT
  REPORT WEATHER SUCH AS PRECIPITATION OR FOG.

ILZ005-006-012>014-019>023-301900-
NORTHEAST ILLINOIS

CITY           SKY/WX    TMP DP  RH WIND       PRES   REMARKS
OHARE          PTSUNNY   55  46  71 N10       30.04F
6HR MIN TEMP:  47; 6HR MAX TEMP:  57; 6HR PCP: TRACE;

MIDWAY         NOT AVBL
AURORA         CLOUDY    56  45  66 E10       30.05F
6HR MIN TEMP:  48; 6HR MAX TEMP:  56;

WAUKEGAN       NOT AVBL
DUPAGE AIRPORT CLOUDY    57  46  66 NE8       30.04F
6HR MIN TEMP:  48; 6HR MAX TEMP:  57;

WHEELING       CLOUDY    56  46  69 N6        30.05F
6HR MIN TEMP:  48; 6HR MAX TEMP:  57;

NORTHERLY IS     N/A     54  50  86 N13         N/A
$$

WIZ051-052-058>065-066-070>072-301900-
SOUTHEAST WISCONSIN

CITY           SKY/WX    TMP DP  RH WIND       PRES   REMARKS
MILWAUKEE      PTSUNNY   54  45  71 N13       30.07F
6HR MIN TEMP:  46; 6HR MAX TEMP:  54;

KENOSHA*       CLOUDY    54  45  71 N12G17    30.06F
RACINE*        CLOUDY    52  46  80 N14       30.08F
WAUKESHA       CLOUDY    48  41  76 NE6       30.08F
$$

INZ001>003-010>013-019-020-301900-
NORTHWEST INDIANA

CITY           SKY/WX    TMP DP  RH WIND       PRES   REMARKS
GARY*          PTSUNNY   61  50  67 N14       30.04F
MICHIGAN CITY* NOT AVBL
RENSSELAER*    NOT AVBL
$$

LMZ740>746-301900-
SOUTHERN LAKE MICHIGAN

STATION/POSITION TIME  SKY/WX   TEMP WIND        PRES    VSBY
                                AIR  DIR/SP/G
                 (UTC)          (F)  (DEG/KT/KT) (MB)    (MI)
HARRISON CRIB    1700            52  330/ 16/ 19   N/A
BURNHAM HARBOR   1800            55  350/ 11/ 12   N/A
CALUMET HARBOR   1700            55  340/ 11/ 16 1016.0F
BURNS HARBOR     NOT AVBL
MICHIGAN CITY    1700            54  360/ 14/ 18   N/A
$$

ABBREVIATIONS USED IN REMARKS
   TC - TEMPERATURE IN CELSIUS
  WCI - WIND CHILL INDEX
   HX - HEAT INDEX
  VSB - VISIBILITY
$$



USA.gov is the U.S. government's official web portal to all federal, state and local government web resources and services.